This is the latest recevied weather packets stored in our database for station/object K4DNM. If no packets are shown the sender has not sent any weather packets the latest 10 day(s).
| Time | Temp. | Humidity | Pressure | Rain* | Wind** | Luminosity | Snow |
|---|---|---|---|---|---|---|---|
| 1777474595 | 19.44° C | 79% | 1012.6 hPa | 0 mm | - | 240 W/m² | - |
| 1777474293 | 18.89° C | 80% | 1012.6 hPa | 0 mm | - | 243 W/m² | - |
| 1777474057 | 18.89° C | 80% | 1012.6 hPa | 0 mm | - | 157 W/m² | - |
| 1777473695 | 18.89° C | 80% | 1012.9 hPa | 0 mm | - | 121 W/m² | - |
| 1777473393 | 18.89° C | 80% | 1012.9 hPa | 0 mm | - | 144 W/m² | - |
| 1777473083 | 18.89° C | 80% | 1013 hPa | 0 mm | - | 120 W/m² | - |
| 1777472843 | 18.89° C | 80% | 1013 hPa | 0 mm | - | 222 W/m² | - |
| 1777472483 | 18.89° C | 79% | 1013.1 hPa | 0 mm | - | 209 W/m² | - |
| 1777472180 | 18.89° C | 80% | 1012.9 hPa | 0 mm | - | 230 W/m² | - |
| 1777471881 | 18.33° C | 81% | 1013 hPa | 0 mm | - | 211 W/m² | - |
| 1777471581 | 18.33° C | 81% | 1013 hPa | 0 mm | - | 150 W/m² | - |
| 1777471281 | 18.33° C | 82% | 1013.1 hPa | 0 mm | - | 146 W/m² | - |
| 1777470981 | 18.33° C | 82% | 1013.2 hPa | 0 mm | - | 146 W/m² | - |
| 1777470680 | 18.33° C | 83% | 1013.3 hPa | 0 mm | - | 108 W/m² | - |
| 1777470381 | 18.33° C | 83% | 1013.4 hPa | 0 mm | - | 125 W/m² | - |
| 1777470080 | 17.78° C | 83% | 1013.5 hPa | 0 mm | - | 115 W/m² | - |
| 1777469781 | 17.78° C | 84% | 1013.6 hPa | 0 mm | - | 115 W/m² | - |
| 1777469466 | 17.78° C | 85% | 1013.7 hPa | 0 mm | - | 97 W/m² | - |
| 1777469211 | 17.78° C | 85% | 1013.8 hPa | 0 mm | - | 82 W/m² | - |
| 1777468851 | 17.78° C | 85% | 1013.9 hPa | 0 mm | - | 78 W/m² | - |
| 1777468553 | 17.78° C | 84% | 1014 hPa | 0 mm | - | 81 W/m² | - |
| 1777468239 | 17.78° C | 83% | 1013.9 hPa | 0 mm | - | 83 W/m² | - |
| 1777467937 | 17.78° C | 84% | 1013.8 hPa | 0 mm | - | 87 W/m² | - |
| 1777467640 | 17.78° C | 84% | 1013.7 hPa | 0 mm | - | 117 W/m² | - |
| 1777467338 | 17.22° C | 84% | 1013.7 hPa | 0 mm | - | 135 W/m² | - |
* Rain latest hour (hover to see other rain measurements)
** Current wind speed in m/s (hover to see current wind gust speed)